Simultaneous Nadir Overpasses (SNOs) Predictions

Prediction of SNOs between AQUA and METOP-B Satellite Orbit:

Table of predicted SNOs for the next 14.0 days since TLE Epoch: 6/10/2015
Index Date (AQUA) Time (AQUA) Lat,Lon (AQUA) SZA (AQUA ) Date (METOP-B) Time (METOP-B) Lat,Lon (METOP-B) SZA (METOP-B ) Distance(km) Time Diff (sec)
1 06/13/2015 00:41:42 -73.68, -15.71 129.51 06/13/2015 00:40:36 -73.70, -15.80 129.48 3.18 66
2 06/13/2015 01:31:11 73.76, 151.77 50.57 06/13/2015 01:31:15 73.75, 151.66 50.57 3.50 4
3 06/13/2015 02:20:40 -73.94, -40.99 129.24 06/13/2015 02:21:52 -73.97, -40.48 129.23 16.32 72
4 06/15/2015 20:15:57 -73.71, 50.67 129.61 06/15/2015 20:14:59 -73.71, 50.63 129.61 1.35 58
5 06/15/2015 21:05:26 73.79,-141.86 50.47 06/15/2015 21:05:37 73.81,-141.80 50.49 2.82 11
6 06/15/2015 21:55:01 -74.28, 24.67 129.01 06/15/2015 21:56:09 -74.28, 26.68 129.08 60.73 68
7 06/18/2015 15:50:10 -73.73, 117.07 129.68 06/18/2015 15:49:21 -73.71, 117.04 129.69 2.39 49
8 06/18/2015 16:39:39 73.81, -75.47 50.41 06/18/2015 16:39:59 73.81, -75.40 50.41 2.00 20
9 06/21/2015 11:24:23 -73.74,-176.50 129.69 06/21/2015 11:23:43 -73.75,-176.45 129.67 2.59 40
10 06/21/2015 12:13:52 73.82, -9.04 50.40 06/21/2015 12:14:22 73.80, -9.01 50.37 2.08 30
11 06/24/2015 06:58:35 -73.73,-110.05 129.67 06/24/2015 06:58:06 -73.74,-110.08 129.65 1.51 29
12 06/24/2015 07:48:04 73.81, 57.41 50.42 06/24/2015 07:48:44 73.83, 57.47 50.43 2.90 40




NCC Satellite Simultaneous Nadir Overpasses (SNOs) Prediction Service
